This is the latest recevied weather packets stored in our database for station/object CE3MXM-13. If no packets are shown the sender has not sent any weather packets the latest 10 day(s).
| Time | Temp. | Humidity | Pressure | Rain* | Wind** | Luminosity | Snow |
|---|---|---|---|---|---|---|---|
| 1777327428 | 15° C | 57% | 1014.1 hPa | - | - | - | - |
| 1777327128 | 15° C | 54% | 1014.2 hPa | - | - | - | - |
| 1777326828 | 15.56° C | 54% | 1014.3 hPa | - | - | - | - |
| 1777326528 | 15.56° C | 53% | 1014 hPa | - | - | - | - |
| 1777326228 | 15.56° C | 50% | 1014.1 hPa | - | - | - | - |
| 1777325928 | 16.11° C | 50% | 1014 hPa | - | - | - | - |
| 1777325627 | 16.11° C | 50% | 1013.9 hPa | - | - | - | - |
| 1777325328 | 16.11° C | 49% | 1013.9 hPa | - | - | - | - |
| 1777325027 | 16.11° C | 51% | 1013.7 hPa | - | - | - | - |
| 1777324727 | 16.67° C | 53% | 1013.7 hPa | - | - | - | - |
| 1777324427 | 16.67° C | 52% | 1013.7 hPa | - | - | - | - |
| 1777324127 | 17.22° C | 51% | 1013.7 hPa | - | - | - | - |
| 1777323827 | 17.22° C | 50% | 1013.7 hPa | - | - | - | - |
| 1777323527 | 17.78° C | 48% | 1013.7 hPa | - | - | - | - |
| 1777323227 | 17.78° C | 46% | 1013.7 hPa | - | - | - | - |
| 1777322927 | 17.78° C | 44% | 1013.9 hPa | - | - | - | - |
| 1777322627 | 17.78° C | 44% | 1013.9 hPa | - | - | - | - |
| 1777322326 | 18.33° C | 43% | 1014 hPa | - | - | - | - |
| 1777322026 | 18.33° C | 43% | 1014 hPa | - | - | - | - |
| 1777321726 | 18.33° C | 41% | 1014 hPa | - | - | - | - |
| 1777321426 | 18.33° C | 40% | 1014 hPa | - | - | - | - |
| 1777321126 | 18.89° C | 41% | 1013.8 hPa | - | - | - | - |
| 1777320826 | 18.89° C | 38% | 1013.8 hPa | - | - | - | - |
| 1777320526 | 18.89° C | 39% | 1013.8 hPa | - | - | - | - |
| 1777320226 | 18.89° C | 42% | 1013.7 hPa | - | - | - | - |
* Rain since midnight (hover to see other rain measurements)
** Current wind speed in m/s (hover to see current wind gust speed)